This demonstration page uses our WeatherBlox Daily Observations layout. Learn more.

38.88101, -77.10428

Hourly Observations for June 3, 2017

Temp ( °F °C ) Dew Point ( °F °C ) Humidity (%) Winds ( mph kmh ) Pressure ( in mb ) Visibility ( mi km ) Precip ( " mm )
12:52 am 00:52 Partly Cloudy 68 20 47 8.3 47 47 SW 3 6 30.04 1017 10 16.0934 0 0
1:52 am 01:52 Mostly Clear 65 18.3 49 9.4 56 56 SW 5 7 30.03 1017 10 16.0934 0 0
2:52 am 02:52 Mostly Clear 62 16.7 51 10.6 67 67 SSW 7 11 30.02 1017 10 16.0934 0 0
3:52 am 03:52 Mostly Clear 62 16.7 51 10.6 67 67 SSW 6 9 30.01 1016 10 16.0934 0 0
4:52 am 04:52 Mostly Clear 62 16.7 52 11.1 70 70 SSW 6 9 30.01 1016 10 16.0934 0 0
5:52 am 05:52 Mostly Cloudy 62 16.7 50 10 65 65 S 6 9 30.01 1016 10 16.0934 0 0
6:52 am 06:52 Cloudy 64 17.8 51 10.6 63 63 SSW 9 15 30.02 1017 10 16.0934 0 0
7:52 am 07:52 Mostly Cloudy 67 19.4 52 11.1 59 59 S 8 13 30.01 1016 10 16.0934 0 0
8:52 am 08:52 Mostly Cloudy 73 22.8 54 12.2 51 51 S 9 15 30.01 1016 10 16.0934 0 0
9:52 am 09:52 Mostly Cloudy 77 25 50 10 39 39 WSW 10 17 30.01 1016 10 16.0934 0 0
10:52 am 10:52 Mostly Cloudy 80 26.7 52 11.1 38 38 W 13 20 30.01 1016 10 16.0934 0 0
11:52 am 11:52 Mostly Cloudy 82 27.8 49 9.4 32 32 NW 15 24 30 1016 10 16.0934 0 0
12:52 pm 12:52 Mostly Cloudy 81 27.2 52 11.1 37 37 NNW 13 20 30 1016 10 16.0934 0 0
1:52 pm 13:52 Mostly Cloudy 81 27 54 12 39 39 N 15 24 30 1016 10 16.0934 0 0
2:52 pm 14:52 Partly Cloudy 83 28.3 53 11.7 36 36 N 13 20 29.98 1015 10 16.0934 0 0
3:52 pm 15:52 Mostly Sunny 85 29.4 53 11.7 33 33 NW 9 15 29.97 1015 10 16.0934 0 0
4:52 pm 16:52 Partly Cloudy 84 28.9 52 11.1 33 33 N 14 22 29.96 1015 10 16.0934 0 0
5:52 pm 17:52 Partly Cloudy 84 28.9 50 10 31 31 N 15 24 29.96 1015 10 16.0934 0 0
6:52 pm 18:52 Partly Cloudy 83 28.3 43 6.1 24 24 NNW 16 26 29.97 1015 10 16.0934 0 0
7:52 pm 19:52 Partly Cloudy 75 23.9 58 14.4 55 55 SE 10 17 29.98 1015 10 16.0934 0 0
8:52 pm 20:52 Partly Cloudy 72 22.2 57 13.9 59 59 S 8 13 30 1016 10 16.0934 0 0
9:52 pm 21:52 Mostly Clear 71 21.7 58 14.4 63 63 S 5 7 30.01 1016 10 16.0934 0 0
10:52 pm 22:52 Mostly Clear 69 20.6 58 14.4 68 68 SSW 6 9 30.02 1017 10 16.0934 0 0
11:52 pm 23:52 Mostly Clear 69 20.6 57 13.9 66 66 SSW 6 9 30.02 1017 10 16.0934 0 0

Powered by AerisWeather